Location: Newark
(39.6867°N, 100.6772°W)
Time: 11:07:12
(UTC+00:00)

Vanguard 1 - Pass Details

Date: 21 October 2019
Orbit: 652 x 3831 km, 34.2° (Epoch: 18 November)

Event Time Altitude Azimuth Distance (km) Brightness Sun altitude
Rises 22:58:46 0° 197° (SSW) 3,275 13.4 9.5°
Reaches altitude 10° 23:01:44 10° 176° (S) 2,611 12.5 8.9°
Maximum altitude 23:05:43 18° 135° (SE) 2,516 12.0 8.2°
Drops below altitude 10° 23:11:03 10° 97° (E) 3,673 12.5 7.3°
Sets 23:16:26 0° 82° (E) 5,318 13.2 6.3°
